FW8254 Weather Reports


Display with metric or nautical units.
time (UTC)temp
F
wind
direction
speed
MPH
gust
MPH
rain 1hr
in
rain 24hr
in
rain mn
in
humidity
%
barometer
mb
20260906202856 93 39 0.0 1.0 0.00 0.00 0.00 53 1003.3
20260906202349 94 34 2.0 2.0 0.00 0.00 0.00 53 1003.5
20260906201849 93 44 1.0 1.0 0.00 0.00 0.00 52 1003.2
20260906201344 93 24 1.0 2.0 0.00 0.00 0.00 52 1003.3
20260906200839 93 24 0.0 1.0 0.00 0.00 0.00 53 1003.5
20260906200335 94 5 2.0 2.0 0.00 0.00 0.00 53 1003.8
20260906195830 95 39 0.0 1.0 0.00 0.00 0.00 52 1003.9
20260906195327 95 38 0.0 1.0 0.00 0.00 0.00 51 1003.8
20260906194822 96 38 1.0 1.0 0.00 0.00 0.00 50 1004.0
20260906194318 95 37 1.0 1.0 0.00 0.00 0.00 51 1004.1
20260906193813 95 38 0.0 1.0 0.00 0.00 0.00 50 1004.0
20260906193308 94 41 0.0 1.0 0.00 0.00 0.00 51 1004.2
20260906192803 95 37 1.0 2.0 0.00 0.00 0.00 51 1004.2
20260906192258 95 25 0.0 1.0 0.00 0.00 0.00 50 1004.0
20260906191756 94 41 0.0 1.0 0.00 0.00 0.00 52 1004.3
20260906191251 94 54 1.0 2.0 0.00 0.00 0.00 54 1004.2
20260906190746 96 55 3.0 3.0 0.00 0.00 0.00 51 1004.4
20260906190240 95 26 0.0 0.0 0.00 0.00 0.00 50 1004.6
20260906185739 94 34 0.0 3.0 0.00 0.00 0.00 52 1004.3
20260906185238 93 43 1.0 1.0 0.00 0.00 0.00 53 1004.6
20260906184733 92 24 1.0 1.0 0.00 0.00 0.00 56 1004.5
20260906184228 92 17 1.0 2.0 0.00 0.00 0.00 57 1004.8
20260906183724 91 27 0.0 1.0 0.00 0.00 0.00 56 1005.0
20260906183221 91 20 1.0 2.0 0.00 0.00 0.00 56 1004.9
20260906182720 91 30 1.0 1.0 0.00 0.00 0.00 58 1005.1
20260906182216 91 14 1.0 2.0 0.00 0.00 0.00 59 1005.0
20260906181711 91 26 0.0 1.0 0.00 0.00 0.00 58 1005.1
20260906181208 90 19 1.0 3.0 0.00 0.00 0.00 57 1005.5
20260906180702 90 342 3.0 3.0 0.00 0.00 0.00 58 1005.4
20260906180157 90 338 3.0 3.0 0.00 0.00 0.00 58 1005.3
20260906175655 91 33 1.0 2.0 0.00 0.00 0.00 59 1005.7
20260906175150 91 24 1.0 1.0 0.00 0.00 0.00 60 1005.6
20260906174648 91 32 1.0 1.0 0.00 0.00 0.00 60 1005.4
20260906174143 90 32 0.0 1.0 0.00 0.00 0.00 61 1005.4
20260906173639 90 25 1.0 1.0 0.00 0.00 0.00 60 1005.7
20260906173134 90 26 1.0 1.0 0.00 0.00 0.00 59 1005.8
20260906172633 90 24 0.0 1.0 0.00 0.00 0.00 60 1005.7
20260906172129 89 12 1.0 2.0 0.00 0.00 0.00 61 1005.7
20260906171628 90 9 1.0 2.0 0.00 0.00 0.00 59 1005.6
20260906171124 89 28 0.0 1.0 0.00 0.00 0.00 60 1005.8
20260906170621 89 28 0.0 2.0 0.00 0.00 0.00 61 1005.9
20260906170119 89 31 0.0 1.0 0.00 0.00 0.00 61 1005.8
20260906165616 89 31 0.0 0.0 0.00 0.00 0.00 63 1006.2
20260906165111 89 33 0.0 1.0 0.00 0.00 0.00 62 1005.9
20260906164610 89 33 0.0 0.0 0.00 0.00 0.00 62 1006.0
20260906164106 88 33 0.0 1.0 0.00 0.00 0.00 61 1006.1
20260906163601 88 33 2.0 2.0 0.00 0.00 0.00 63 1006.2
20260906163057 88 33 1.0 1.0 0.00 0.00 0.00 64 1006.1
20260906162554 88 33 1.0 1.0 0.00 0.00 0.00 64 1006.3
20260906162049 88 32 0.0 0.0 0.00 0.00 0.00 64 1006.3
20260906161544 88 33 1.0 2.0 0.00 0.00 0.00 65 1006.3
20260906161043 87 33 1.0 1.0 0.00 0.00 0.00 65 1006.4
20260906160542 87 31 0.0 1.0 0.00 0.00 0.00 68 1006.6
20260906160040 87 28 0.0 0.0 0.00 0.00 0.00 70 1006.6
20260906155538 87 32 0.0 0.0 0.00 0.00 0.00 70 1006.6
20260906155035 86 32 0.0 1.0 0.00 0.00 0.00 70 1006.6
20260906154530 86 33 0.0 1.0 0.00 0.00 0.00 71 1006.5
20260906154028 86 33 0.0 1.0 0.00 0.00 0.00 71 1006.8
20260906153527 85 32 0.0 1.0 0.00 0.00 0.00 72 1006.6
20260906153023 85 31 0.0 1.0 0.00 0.00 0.00 73 1006.9
20260906152517 84 31 0.0 0.0 0.00 0.00 0.00 75 1006.9
20260906152016 84 30 0.0 1.0 0.00 0.00 0.00 77 1006.8
20260906151512 84 27 0.0 2.0 0.00 0.00 0.00 77 1006.7
20260906151008 84 31 0.0 0.0 0.00 0.00 0.00 77 1006.8
20260906150503 83 31 0.0 0.0 0.00 0.00 0.00 77 1007.0
20260906150002 83 31 0.0 0.0 0.00 0.00 0.00 79 1006.9
20260906145456 83 31 0.0 1.0 0.00 0.00 0.00 79 1006.9
20260906144955 83 31 0.0 0.0 0.00 0.00 0.00 81 1006.7
20260906144451 82 31 0.0 0.0 0.00 0.00 0.00 81 1006.8
20260906143946 82 31 0.0 1.0 0.00 0.00 0.00 82 1006.9
20260906143441 81 31 0.0 0.0 0.00 0.00 0.00 83 1006.9
20260906142937 81 31 0.0 0.0 0.00 0.00 0.00 86 1006.8
20260906142431 80 31 0.0 0.0 0.00 0.00 0.00 87 1006.8
20260906141926 80 31 0.0 0.0 0.00 0.00 0.00 89 1007.0
20260906141425 79 31 0.0 0.0 0.00 0.00 0.00 90 1006.7
20260906140920 79 31 0.0 0.0 0.00 0.00 0.00 91 1006.9
20260906140414 78 31 0.0 0.0 0.00 0.00 0.00 92 1006.7
20260906135912 78 31 0.0 0.0 0.00 0.00 0.00 93 1006.6
20260906135406 78 31 0.0 0.0 0.00 0.00 0.00 93 1006.7
20260906134902 77 31 0.0 0.0 0.00 0.00 0.00 94 1006.8
20260906134357 77 31 0.0 1.0 0.00 0.00 0.00 95 1006.6
20260906133852 77 26 0.0 0.0 0.00 0.00 0.00 96 1006.8
20260906133348 76 26 0.0 0.0 0.00 0.00 0.00 96 1006.7
20260906132843 76 29 0.0 0.0 0.00 0.00 0.00 96 1006.6
20260906132338 76 29 0.0 0.0 0.00 0.00 0.00 97 1006.7
20260906131834 75 29 0.0 0.0 0.00 0.00 0.00 97 1006.5
20260906131329 75 29 0.0 0.0 0.00 0.00 0.00 97 1006.8
20260906130825 75 29 0.0 0.0 0.00 0.00 0.00 97 1006.5
20260906130324 75 29 0.0 0.0 0.00 0.00 0.00 97 1006.6
20260906125823 75 29 0.0 0.0 0.00 0.00 0.00 97 1006.6
20260906125321 74 28 0.0 0.0 0.00 0.00 0.00 97 1006.7
20260906124816 74 27 0.0 0.0 0.00 0.00 0.00 97 1006.6
20260906124312 75 30 0.0 0.0 0.00 0.00 0.00 97 1006.6
20260906123811 74 30 1.0 1.0 0.00 0.00 0.00 97 1006.7
20260906123306 74 28 0.0 0.0 0.00 0.00 0.00 97 1006.6
20260906122806 74 28 0.0 0.0 0.00 0.00 0.00 97 1006.5
20260906122301 73 40 0.0 0.0 0.00 0.00 0.00 97 1006.6
20260906121757 73 40 0.0 0.0 0.00 0.00 0.00 97 1006.5
20260906121253 73 40 0.0 0.0 0.00 0.00 0.00 97 1006.6
20260906120749 73 40 0.0 0.0 0.00 0.00 0.00 97 1006.3
20260906120245 73 41 0.0 0.0 0.00 0.00 0.00 97 1006.1
20260906115741 72 40 0.0 0.0 0.00 0.00 0.00 97 1005.9
20260906115236 72 41 0.0 0.0 0.00 0.00 0.00 97 1006.2
20260906114735 72 41 0.0 0.0 0.00 0.00 0.00 97 1006.2
20260906114231 72 41 0.0 0.0 0.00 0.00 0.00 97 1006.2
20260906113726 72 40 0.0 0.0 0.00 0.00 0.00 97 1006.1
20260906113225 72 40 0.0 0.0 0.00 0.00 0.00 97 1006.1
20260906112725 72 40 0.0 0.0 0.00 0.00 0.00 97 1006.1
20260906112222 72 38 0.0 0.0 0.00 0.00 0.00 97 1006.0
20260906111721 72 38 0.0 0.0 0.00 0.00 0.00 97 1005.9
20260906111215 73 38 0.0 0.0 0.00 0.00 0.00 97 1005.9
20260906110711 73 38 0.0 0.0 0.00 0.00 0.00 97 1005.5
20260906110207 72 38 0.0 0.0 0.00 0.00 0.00 97 1005.5
20260906105706 72 38 0.0 0.0 0.00 0.00 0.00 97 1005.8
20260906105202 71 38 0.0 0.0 0.00 0.00 0.00 97 1005.8
20260906104701 71 38 0.0 0.0 0.00 0.00 0.00 97 1005.6
20260906104201 71 38 0.0 0.0 0.00 0.00 0.00 97 1005.5
20260906103658 71 38 0.0 0.0 0.00 0.00 0.00 97 1005.5
20260906103154 71 38 0.0 0.0 0.00 0.00 0.00 97 1005.7
20260906102649 71 38 0.0 0.0 0.00 0.00 0.00 97 1005.5
20260906102143 72 38 0.0 0.0 0.00 0.00 0.00 97 1005.5
20260906101643 71 38 0.0 0.0 0.00 0.00 0.00 97 1005.5
20260906101143 72 38 0.0 0.0 0.00 0.00 0.00 97 1005.5
20260906100639 72 38 0.0 0.0 0.00 0.00 0.00 97 1005.5
20260906100133 72 38 0.0 0.0 0.00 0.00 0.00 97 1005.7
20260906095628 72 36 0.0 0.0 0.00 0.00 0.00 97 1005.6
20260906095123 73 29 0.0 1.0 0.00 0.00 0.00 97 1005.4
20260906094622 73 7 2.0 2.0 0.00 0.00 0.00 97 1005.6
20260906094118 73 346 2.0 2.0 0.00 0.00 0.00 97 1005.7
20260906093614 72 24 1.0 1.0 0.00 0.00 0.00 97 1005.3
20260906093108 72 37 0.0 0.0 0.00 0.00 0.00 97 1005.6
20260906092603 72 37 0.0 0.0 0.00 0.00 0.00 97 1005.6
20260906092059 73 20 1.0 2.0 0.00 0.00 0.00 97 1005.6
20260906091554 73 335 3.0 3.0 0.00 0.00 0.00 97 1005.6
20260906091051 72 20 0.0 1.0 0.00 0.00 0.00 97 1005.5
20260906090551 72 41 0.0 0.0 0.00 0.00 0.00 97 1005.3
20260906090046 72 41 0.0 0.0 0.00 0.00 0.00 97 1005.5
20260906085544 72 41 0.0 0.0 0.00 0.00 0.00 97 1005.5
20260906085044 72 41 0.0 0.0 0.00 0.00 0.00 97 1005.5
20260906084539 72 41 0.0 0.0 0.00 0.00 0.00 97 1005.3
20260906084037 72 41 0.0 0.0 0.00 0.00 0.00 97 1005.5
20260906083534 72 41 0.0 0.0 0.00 0.00 0.00 97 1005.3
20260906083033 72 41 0.0 0.0 0.00 0.00 0.00 97 1005.2
20260906082528 73 41 0.0 0.0 0.00 0.00 0.00 97 1005.1
20260906082024 73 41 0.0 0.0 0.00 0.00 0.00 97 1005.4
20260906081520 73 41 0.0 0.0 0.00 0.00 0.00 97 1005.3
20260906081015 73 41 0.0 0.0 0.00 0.00 0.00 97 1005.4
20260906080512 73 41 0.0 0.0 0.00 0.00 0.00 97 1005.2
20260906080008 72 41 0.0 0.0 0.00 0.00 0.00 97 1005.4
20260906075502 72 41 0.0 0.0 0.00 0.00 0.00 97 1005.4
20260906074956 72 41 0.0 0.0 0.00 0.00 0.00 97 1005.2
20260906074451 72 41 0.0 0.0 0.00 0.00 0.00 97 1005.1
20260906073949 72 41 0.0 0.0 0.00 0.00 0.00 97 1005.1
20260906073444 72 41 0.0 0.0 0.00 0.00 0.00 97 1005.2
20260906072941 73 42 0.0 0.0 0.00 0.00 0.00 97 1004.9
20260906072436 73 37 0.0 0.0 0.00 0.00 0.00 97 1004.8
20260906071932 72 37 0.0 0.0 0.00 0.00 0.00 97 1004.8
20260906071427 72 37 0.0 0.0 0.00 0.00 0.00 97 1005.0
20260906070923 72 37 0.0 0.0 0.00 0.00 0.00 97 1005.1
20260906070419 72 37 0.0 0.0 0.00 0.00 0.00 97 1005.0
20260906065915 72 37 0.0 0.0 0.00 0.00 0.00 97 1005.2
20260906065409 72 37 0.0 0.0 0.00 0.00 0.00 97 1005.2
20260906064905 72 37 0.0 0.0 0.00 0.00 0.00 97 1005.2
20260906064401 72 30 0.0 1.0 0.00 0.00 0.00 97 1005.1
20260906063901 73 41 0.0 0.0 0.00 0.00 0.00 97 1005.4
20260906063356 73 37 0.0 0.0 0.00 0.00 0.00 97 1005.4
20260906062851 74 12 1.0 2.0 0.00 0.00 0.00 97 1005.5
20260906062350 73 29 0.0 0.0 0.00 0.00 0.00 97 1005.3
20260906061846 73 26 1.0 2.0 0.00 0.00 0.00 97 1005.4
20260906061342 72 329 2.0 3.0 0.00 0.00 0.00 97 1005.5
20260906060836 72 23 0.0 0.0 0.00 0.00 0.00 97 1005.6
20260906060334 73 23 0.0 0.0 0.00 0.00 0.00 97 1005.7
20260906055830 73 23 0.0 0.0 0.00 0.00 0.00 97 1005.9
20260906055325 73 22 0.0 0.0 0.00 0.00 0.00 97 1005.9
20260906054821 73 22 0.0 0.0 0.00 0.00 0.00 97 1006.1
20260906054315 73 22 0.0 0.0 0.00 0.00 0.00 97 1006.2
20260906053812 73 22 0.0 0.0 0.00 0.00 0.00 97 1006.0
20260906053307 73 22 0.0 1.0 0.00 0.00 0.00 97 1006.1
20260906052802 74 29 0.0 0.0 0.00 0.00 0.00 97 1006.2
20260906052259 73 28 0.0 0.0 0.00 0.00 0.00 97 1006.2
20260906051755 74 30 0.0 1.0 0.00 0.00 0.00 97 1006.2
20260906051255 74 28 1.0 1.0 0.00 0.00 0.00 97 1006.1
20260906050750 74 29 0.0 0.0 0.00 0.00 0.00 97 1006.2
20260906050245 74 26 1.0 1.0 0.00 0.00 0.00 97 1006.1
20260906045744 74 18 2.0 2.0 0.00 0.00 0.00 97 1006.1
20260906045239 73 25 0.0 1.0 0.00 0.00 0.00 97 1006.1
20260906044735 72 41 0.0 0.0 0.00 0.00 0.00 97 1006.1
20260906044230 72 41 0.0 0.0 0.00 0.00 0.00 97 1006.2
20260906043726 72 41 0.0 0.0 0.00 0.00 0.00 97 1006.4
20260906043222 72 41 0.0 0.0 0.00 0.00 0.00 97 1006.5
20260906042721 72 41 0.0 0.0 0.00 0.00 0.00 97 1006.5
20260906042220 72 41 0.0 0.0 0.00 0.00 0.00 97 1006.6
20260906041716 72 41 0.0 0.0 0.00 0.00 0.00 97 1006.5
20260906041211 72 41 0.0 0.0 0.00 0.00 0.00 97 1006.6
20260906040707 72 42 0.0 0.0 0.00 0.00 0.00 97 1006.5
20260906040201 72 41 0.0 0.0 0.00 0.00 0.00 97 1006.6
20260906035657 72 41 0.0 0.0 0.00 1.02 1.02 97 1006.7
20260906035153 72 41 0.0 0.0 0.00 1.02 1.02 97 1006.7
20260906034647 72 40 0.0 0.0 0.00 1.02 1.02 97 1006.7
20260906034142 72 40 0.0 0.0 0.00 1.02 1.02 97 1006.7
20260906033638 72 30 0.0 0.0 0.00 1.02 1.02 97 1006.6
20260906033138 73 30 0.0 0.0 0.00 1.02 1.02 97 1006.6
20260906032635 72 30 0.0 0.0 0.00 1.02 1.02 97 1006.9
20260906032134 72 42 0.0 1.0 0.00 1.02 1.02 97 1006.5
20260906031630 72 41 0.0 0.0 0.00 1.02 1.02 97 1006.5
20260906031125 72 41 0.0 0.0 0.00 1.02 1.02 97 1006.6
20260906030624 73 30 0.0 1.0 0.00 1.02 1.02 97 1006.7
20260906030120 73 36 0.0 0.0 0.00 1.02 1.02 97 1006.6
20260906025619 73 37 0.0 0.0 0.00 1.02 1.02 97 1006.8
20260906025118 73 13 2.0 2.0 0.00 1.02 1.02 97 1006.5
20260906024613 73 351 2.0 3.0 0.00 1.02 1.02 97 1006.7
20260906024107 73 48 1.0 2.0 0.00 1.02 1.02 97 1006.7
20260906023603 73 42 0.0 0.0 0.00 1.02 1.02 97 1006.4
20260906023057 73 42 0.0 0.0 0.00 1.02 1.02 96 1006.5
20260906022553 73 42 0.0 0.0 0.00 1.02 1.02 96 1006.6
20260906022048 73 42 0.0 0.0 0.00 1.02 1.02 96 1006.7
20260906021544 73 42 0.0 0.0 0.00 1.02 1.02 96 1006.3
20260906021042 73 42 0.0 0.0 0.00 1.02 1.02 96 1006.3
20260906020537 74 42 0.0 0.0 0.00 1.02 1.02 96 1006.3
20260906020036 73 40 0.0 0.0 0.00 1.02 1.02 96 1006.0
20260906015536 73 40 0.0 0.0 0.00 1.02 1.02 96 1006.1
20260906015036 73 40 0.0 0.0 0.00 1.02 1.02 96 1006.0
20260906014531 73 41 0.0 1.0 0.00 1.02 1.02 96 1006.1
20260906014026 73 39 0.0 0.0 0.00 1.02 1.02 96 1006.0
20260906013522 73 39 0.0 0.0 0.00 1.02 1.02 96 1005.9
20260906013017 73 39 0.0 0.0 0.00 1.02 1.02 96 1005.7
20260906012512 73 39 0.0 0.0 0.00 1.02 1.02 95 1005.7
20260906012012 73 39 0.0 0.0 0.00 1.02 1.02 95 1005.6
20260906011508 73 39 0.0 1.0 0.00 1.02 1.02 95 1005.8
20260906011002 73 39 0.0 0.0 0.00 1.02 1.02 95 1005.6
20260906010457 73 39 0.0 0.0 0.00 1.02 1.02 95 1005.4
20260906005954 73 39 0.0 0.0 0.00 1.02 1.02 95 1005.6
20260906005453 73 39 0.0 0.0 0.00 1.02 1.02 95 1005.4
20260906004951 73 39 0.0 0.0 0.00 1.02 1.02 95 1005.4
20260906004446 73 39 0.0 0.0 0.00 1.02 1.02 95 1005.4
20260906003941 73 39 0.0 0.0 0.00 1.02 1.02 95 1005.5
20260906003442 72 39 0.0 0.0 0.00 1.02 1.02 95 1005.6
20260906002937 72 39 0.0 0.0 0.00 1.02 1.02 94 1005.6
20260906002437 72 39 0.0 0.0 0.00 1.02 1.02 94 1005.5
20260906001932 71 39 0.0 0.0 0.00 1.02 1.02 94 1005.7
20260906001428 71 39 0.0 0.0 0.00 1.02 1.02 94 1005.8
20260906000923 71 39 0.0 0.0 0.00 1.02 1.02 94 1005.8
20260906000418 72 39 0.0 0.0 0.00 1.02 1.02 94 1005.8
20260905235913 72 39 0.0 0.0 0.00 1.02 1.02 94 1006.0
20260905235407 72 39 0.0 0.0 0.00 1.02 1.02 94 1006.0
20260905234902 72 39 0.0 1.0 0.00 1.02 1.02 94 1006.1
20260905234357 72 22 2.0 2.0 0.00 1.02 1.02 94 1005.9
20260905233852 73 33 0.0 0.0 0.00 1.02 1.02 93 1005.8
20260905233347 73 43 0.0 2.0 0.00 1.02 1.02 93 1005.6
20260905232846 72 48 1.0 1.0 0.00 1.02 1.02 93 1005.8
20260905232343 72 42 0.0 0.0 0.00 1.02 1.02 93 1005.5
20260905231838 73 41 0.0 1.0 0.00 1.02 1.02 93 1005.8
20260905231338 73 39 0.0 1.0 0.00 1.02 1.02 93 1005.7
20260905230836 73 5 2.0 3.0 0.00 1.02 1.02 92 1005.8
20260905230333 73 332 2.0 3.0 0.00 1.02 1.02 92 1005.5
20260905225832 72 331 3.0 3.0 0.00 1.02 1.02 93 1005.3
20260905225328 73 28 0.0 1.0 0.00 1.02 1.02 93 1005.2
20260905224827 72 350 2.0 3.0 0.00 1.02 1.02 93 1005.0
20260905224323 73 331 3.0 6.0 0.00 1.02 1.02 93 1005.2
20260905223818 73 316 6.0 8.0 0.00 1.02 1.02 94 1005.3
20260905223316 73 4 3.0 3.0 0.00 1.02 1.02 95 1005.0
20260905222811 73 28 0.0 1.0 0.00 1.02 1.02 93 1004.7
20260905222309 73 29 0.0 1.0 0.00 1.02 1.02 93 1004.6
20260905221806 73 332 3.0 3.0 0.00 1.02 1.02 92 1005.1
20260905221302 72 340 3.0 3.0 0.05 1.02 1.02 92 1005.4
20260905220758 72 41 0.0 1.0 0.05 1.02 1.02 92 1005.4
20260905220254 72 38 0.0 0.0 0.00 1.01 1.01 92 1005.1
20260905215753 72 46 1.0 1.0 0.00 1.01 1.01 91 1005.1
20260905215249 72 46 1.0 1.0 0.07 1.01 1.01 91 1005.5
20260905214744 72 30 1.0 1.0 0.14 1.01 1.01 90 1005.4
20260905214240 73 60 1.0 2.0 0.28 0.99 0.99 90 1005.4
20260905213735 73 47 1.0 2.0 0.59 0.98 0.98 90 1005.9
20260905213231 73 286 3.0 5.0 0.31 0.92 0.92 89 1006.0
20260905212726 73 351 5.0 6.0 0.00 0.87 0.87 89 1006.7
20260905212225 72 91 1.0 2.0 2.60 0.86 0.86 88 1007.1
20260905211725 75 101 6.0 7.0 2.15 0.71 0.71 88 1007.6
20260905211221 77 82 4.0 6.0 2.15 0.36 0.36 85 1006.5
20260905210717 82 76 3.0 8.0 0.59 0.10 0.10 79 1006.0
20260905210212 89 79 3.0 10.0 0.00 0.00 0.00 61 1005.1
20260905205710 93 40 1.0 3.0 0.00 0.00 0.00 54 1004.4
20260905205204 95 26 0.0 1.0 0.00 0.00 0.00 54 1003.9
20260905204659 95 328 3.0 3.0 0.00 0.00 0.00 54 1003.9
20260905204154 95 29 0.0 1.0 0.00 0.00 0.00 55 1003.5
20260905203648 95 17 1.0 2.0 0.00 0.00 0.00 56 1003.3